EW7007 Weather Reports


Display with metric or nautical units.
time (UTC)temp
F
wind
direction
speed
MPH
gust
MPH
rain 1hr
in
rain 24hr
in
rain mn
in
humidity
%
barometer
mb
20260507113720 43 229 2.0 3.0 0.00 0.00 0.00 83 1013.5
20260507113220 44 232 1.0 3.0 0.00 0.00 0.00 83 1013.5
20260507112725 44 228 1.0 3.0 0.00 0.00 0.00 83 1013.4
20260507112221 44 227 2.0 3.0 0.00 0.00 0.00 83 1013.5
20260507111720 44 227 2.0 5.0 0.00 0.00 0.00 82 1013.5
20260507111225 44 227 2.0 5.0 0.00 0.00 0.00 82 1013.4
20260507110720 44 227 1.0 3.0 0.00 0.00 0.00 82 1013.5
20260507105725 44 230 1.0 3.0 0.00 0.00 0.00 81 1013.4
20260507105220 44 230 2.0 5.0 0.00 0.00 0.00 81 1013.4
20260507104719 44 226 2.0 6.0 0.00 0.00 0.00 81 1013.5
20260507104223 44 222 3.0 5.0 0.00 0.00 0.00 80 1013.5
20260507103719 44 199 3.0 6.0 0.00 0.00 0.00 80 1013.5
20260507103220 44 234 3.0 6.0 0.00 0.00 0.00 80 1013.4
20260507102723 44 213 2.0 5.0 0.00 0.00 0.00 79 1013.4
20260507102219 45 210 3.0 7.0 0.00 0.00 0.00 79 1013.5
20260507101720 45 231 3.0 6.0 0.00 0.00 0.00 79 1013.5
20260507101225 45 216 3.0 6.0 0.00 0.00 0.00 78 1013.5
20260507095725 45 239 3.0 6.0 0.00 0.00 0.00 77 1013.6
20260507095220 46 211 3.0 6.0 0.00 0.00 0.00 76 1013.7
20260507094720 46 212 2.0 5.0 0.00 0.00 0.00 76 1013.7
20260507094223 46 222 3.0 8.0 0.00 0.00 0.00 76 1013.7
20260507093720 46 234 2.0 6.0 0.00 0.00 0.00 76 1013.8
20260507093221 46 259 2.0 6.0 0.00 0.00 0.00 76 1013.8
20260507092219 46 232 3.0 6.0 0.00 0.00 0.00 76 1013.8
20260507091720 46 232 2.0 6.0 0.00 0.00 0.00 76 1013.9
20260507091224 46 241 2.0 6.0 0.00 0.00 0.00 76 1013.9
20260507090720 46 216 2.0 5.0 0.00 0.00 0.00 76 1013.9
20260507085725 46 228 1.0 5.0 0.00 0.00 0.00 75 1014.0
20260507084719 46 217 2.0 6.0 0.00 0.00 0.00 75 1014.2
20260507084225 46 221 2.0 5.0 0.00 0.00 0.00 74 1014.3
20260507083221 47 229 1.0 3.0 0.00 0.00 0.00 73 1014.3
20260507082724 47 228 2.0 3.0 0.00 0.00 0.00 73 1014.4
20260507081720 47 223 2.0 5.0 0.00 0.00 0.00 72 1014.5
20260507080220 47 220 2.0 3.0 0.00 0.00 0.00 71 1014.7
20260507075725 47 219 1.0 3.0 0.00 0.00 0.00 70 1014.7
20260507075221 48 225 2.0 5.0 0.00 0.00 0.00 70 1014.8
20260507073222 48 225 3.0 6.0 0.00 0.00 0.00 69 1015.0
20260507072725 48 240 2.0 5.0 0.00 0.00 0.00 68 1015.1
20260507072220 48 250 2.0 3.0 0.00 0.00 0.00 68 1015.1
20260507071221 48 229 2.0 5.0 0.00 0.00 0.00 67 1015.2
20260507070720 48 228 3.0 6.0 0.00 0.00 0.00 66 1015.3
20260507070220 48 227 2.0 3.0 0.00 0.00 0.00 65 1015.3
20260507065722 48 227 2.0 3.0 0.00 0.00 0.00 64 1015.4
20260507065219 48 227 1.0 5.0 0.00 0.00 0.00 64 1015.5
20260507064720 48 235 1.0 3.0 0.00 0.00 0.00 63 1015.5
20260507063720 48 235 1.0 3.0 0.00 0.00 0.00 61 1015.6
20260507063219 49 235 1.0 3.0 0.00 0.00 0.00 60 1015.7
20260507062724 49 235 1.0 3.0 0.00 0.00 0.00 60 1015.7
20260507062220 49 235 1.0 3.0 0.00 0.00 0.00 59 1015.7
20260507061720 49 235 3.0 6.0 0.00 0.00 0.00 58 1015.8
20260507061222 49 213 2.0 3.0 0.00 0.00 0.00 58 1015.8
20260507060719 49 203 3.0 5.0 0.00 0.00 0.00 57 1015.8
20260507055722 49 226 3.0 7.0 0.00 0.00 0.00 55 1015.8
20260507055220 50 208 2.0 3.0 0.00 0.00 0.00 55 1015.8
20260507054720 50 207 1.0 5.0 0.00 0.00 0.00 55 1015.8
20260507054224 50 207 2.0 3.0 0.00 0.00 0.00 55 1015.8
20260507053220 51 224 3.0 5.0 0.00 0.00 0.00 53 1015.8
20260507052724 51 238 3.0 9.0 0.00 0.00 0.00 53 1015.8
20260507051719 51 247 2.0 7.0 0.00 0.00 0.00 51 1015.9
20260507051224 51 233 2.0 7.0 0.00 0.00 0.00 51 1015.9
20260507050720 51 222 3.0 7.0 0.00 0.00 0.00 50 1015.9
20260507050219 51 223 2.0 5.0 0.00 0.00 0.00 49 1016.0
20260507045724 51 230 2.0 10.0 0.00 0.00 0.00 49 1016.0
20260507045220 51 210 3.0 7.0 0.00 0.00 0.00 48 1016.0
20260507044720 50 240 3.0 5.0 0.00 0.00 0.00 48 1016.1
20260507043720 50 202 3.0 7.0 0.00 0.00 0.00 49 1016.1
20260507043220 49 227 2.0 3.0 0.00 0.00 0.00 49 1016.1
20260507042722 49 224 2.0 6.0 0.00 0.00 0.00 50 1016.2
20260507042220 48 239 2.0 3.0 0.00 0.00 0.00 51 1016.2
20260507041720 48 240 1.0 3.0 0.00 0.00 0.00 53 1016.2
20260507041224 48 240 0.0 0.0 0.00 0.00 0.00 53 1016.2
20260507040719 48 240 0.0 0.0 0.00 0.00 0.00 54 1016.2
20260507040219 48 240 0.0 1.0 0.00 0.00 0.00 55 1016.2
20260507035219 48 240 0.0 1.0 0.00 0.00 0.00 54 1016.4
20260507034719 48 240 0.0 1.0 0.00 0.00 0.00 54 1016.4
20260507034221 48 240 0.0 0.0 0.00 0.00 0.00 53 1016.3
20260507033720 48 240 0.0 0.0 0.00 0.00 0.00 51 1016.3
20260507033220 48 240 0.0 0.0 0.00 0.00 0.00 51 1016.3
20260507032722 48 240 0.0 0.0 0.00 0.00 0.00 50 1016.3
20260507032220 49 240 0.0 0.0 0.00 0.00 0.00 50 1016.3
20260507031720 49 240 0.0 0.0 0.00 0.00 0.00 50 1016.3
20260507031224 49 240 0.0 0.0 0.00 0.00 0.00 49 1016.3
20260507030720 50 240 0.0 0.0 0.00 0.00 0.00 48 1016.3
20260507030220 50 240 0.0 0.0 0.00 0.00 0.00 47 1016.4
20260507025724 50 240 0.0 0.0 0.00 0.00 0.00 46 1016.3
20260507025220 51 240 0.0 0.0 0.00 0.00 0.00 45 1016.3
20260507024720 51 240 0.0 0.0 0.00 0.00 0.00 46 1016.3
20260507024224 52 240 0.0 0.0 0.00 0.00 0.00 45 1016.3
20260507023720 52 240 0.0 0.0 0.00 0.00 0.00 44 1016.2
20260507023220 53 240 0.0 0.0 0.00 0.00 0.00 43 1016.2
20260507022722 53 240 0.0 0.0 0.00 0.00 0.00 43 1016.1
20260507022220 54 240 0.0 0.0 0.00 0.00 0.00 41 1016.0
20260507021720 54 240 0.0 0.0 0.00 0.00 0.00 40 1016.0
20260507021221 55 240 0.0 0.0 0.00 0.00 0.00 39 1016.0
20260507020720 55 240 0.0 0.0 0.00 0.00 0.00 38 1016.0
20260507020220 56 240 0.0 0.0 0.00 0.00 0.00 38 1016.0
20260507015723 56 240 0.0 0.0 0.00 0.00 0.00 37 1016.0
20260507015220 57 240 0.0 0.0 0.00 0.00 0.00 36 1015.9
20260507014720 57 240 0.0 0.0 0.00 0.00 0.00 34 1015.9
20260507013720 58 240 0.0 0.0 0.00 0.00 0.00 32 1015.8
20260507013220 58 240 0.0 0.0 0.00 0.00 0.00 31 1015.8
20260507012723 58 240 0.0 0.0 0.00 0.00 0.00 31 1015.8
20260507012220 59 240 0.0 0.0 0.00 0.00 0.00 30 1015.8
20260507010720 59 240 0.0 1.0 0.00 0.00 0.00 29 1015.9
20260507010220 60 240 0.0 3.0 0.00 0.00 0.00 29 1015.9
20260507004720 60 257 1.0 3.0 0.00 0.00 0.00 28 1016.0
20260507004223 60 257 0.0 7.0 0.00 0.00 0.00 27 1016.0
20260507003720 60 242 1.0 2.0 0.00 0.00 0.00 28 1016.0
20260507003220 60 242 1.0 3.0 0.00 0.00 0.00 27 1016.0
20260507002721 60 242 2.0 6.0 0.00 0.00 0.00 28 1016.0
20260507002220 60 262 3.0 6.0 0.00 0.00 0.00 27 1016.1
20260507001720 60 239 1.0 5.0 0.00 0.00 0.00 27 1016.1
20260507001221 61 226 2.0 5.0 0.00 0.00 0.00 27 1016.0
20260507000219 61 309 2.0 3.0 0.00 0.00 0.00 27 1016.1
20260506235723 61 239 1.0 5.0 0.00 0.00 0.00 27 1016.2
20260506235219 61 252 0.0 2.0 0.00 0.00 0.00 26 1016.3
20260506234720 62 250 0.0 3.0 0.00 0.00 0.00 26 1016.3
20260506234223 62 246 1.0 5.0 0.00 0.00 0.00 26 1016.4
20260506233719 63 269 1.0 7.0 0.00 0.00 0.00 25 1016.4
20260506233219 64 259 1.0 3.0 0.00 0.00 0.00 25 1016.4
20260506232721 64 329 2.0 8.0 0.00 0.00 0.00 25 1016.4
20260506231720 64 298 2.0 3.0 0.00 0.00 0.00 24 1016.5
20260506230220 63 245 1.0 7.0 0.00 0.00 0.00 25 1016.4
20260506225723 63 237 0.0 6.0 0.00 0.00 0.00 26 1016.5
20260506225221 63 291 1.0 6.0 0.00 0.00 0.00 26 1016.6
20260506224720 63 305 3.0 6.0 0.00 0.00 0.00 25 1016.6
20260506224223 63 222 2.0 7.0 0.00 0.00 0.00 26 1016.6
20260506223720 63 249 1.0 5.0 0.00 0.00 0.00 25 1016.6
20260506223220 63 250 1.0 3.0 0.00 0.00 0.00 25 1016.7
20260506222723 63 250 2.0 6.0 0.00 0.00 0.00 25 1016.8
20260506222220 64 236 1.0 5.0 0.00 0.00 0.00 24 1016.8
20260506220720 64 325 2.0 3.0 0.00 0.00 0.00 26 1016.9
20260506220220 64 282 2.0 6.0 0.00 0.00 0.00 25 1016.9
20260506215220 65 269 3.0 7.0 0.00 0.00 0.00 24 1017.0
20260506214720 64 275 1.0 3.0 0.00 0.00 0.00 27 1017.0
20260506214220 63 275 1.0 3.0 0.00 0.00 0.00 26 1017.2
20260506213720 63 349 2.0 8.0 0.00 0.00 0.00 25 1017.3
20260506212721 64 351 1.0 3.0 0.00 0.00 0.00 26 1017.3
20260506212220 65 320 1.0 3.0 0.00 0.00 0.00 25 1017.4
20260506211720 64 344 1.0 3.0 0.00 0.00 0.00 25 1017.4
20260506211222 63 344 1.0 5.0 0.00 0.00 0.00 26 1017.5
20260506210720 63 347 2.0 3.0 0.00 0.00 0.00 26 1017.6
20260506210220 64 330 3.0 7.0 0.00 0.00 0.00 25 1017.6
20260506205722 65 319 2.0 6.0 0.00 0.00 0.00 23 1017.7
20260506205220 65 258 3.0 13.0 0.00 0.00 0.00 24 1017.7
20260506204720 65 252 7.0 13.0 0.00 0.00 0.00 24 1017.8
20260506203720 63 323 1.0 3.0 0.00 0.00 0.00 26 1017.9
20260506203220 61 325 2.0 5.0 0.00 0.00 0.00 29 1018.0
20260506202722 61 320 1.0 6.0 0.00 0.00 0.00 27 1018.0
20260506202220 62 343 1.0 5.0 0.00 0.00 0.00 27 1018.1
20260506201719 62 329 2.0 6.0 0.00 0.00 0.00 26 1018.2
20260506201222 62 352 3.0 7.0 0.00 0.00 0.00 26 1018.3
20260506200720 63 293 1.0 3.0 0.00 0.00 0.00 27 1018.3
20260506200220 63 300 1.0 3.0 0.00 0.00 0.00 27 1018.4
20260506195722 63 292 1.0 6.0 0.00 0.00 0.00 26 1018.5
20260506195220 63 296 2.0 5.0 0.00 0.00 0.00 26 1018.5
20260506194720 63 298 2.0 3.0 0.00 0.00 0.00 27 1018.5
20260506194223 63 301 3.0 8.0 0.00 0.00 0.00 26 1018.4
20260506193720 65 254 3.0 8.0 0.00 0.00 0.00 24 1018.4
20260506193220 65 355 2.0 5.0 0.00 0.00 0.00 26 1018.5
20260506192721 64 234 3.0 6.0 0.00 0.00 0.00 25 1018.5
20260506191221 62 290 1.0 3.0 0.00 0.00 0.00 28 1018.5
20260506190719 62 288 3.0 10.0 0.00 0.00 0.00 27 1018.6
20260506190220 62 241 2.0 10.0 0.00 0.00 0.00 27 1018.7
20260506184720 62 319 1.0 6.0 0.00 0.00 0.00 28 1018.9
20260506184222 62 277 1.0 5.0 0.00 0.00 0.00 26 1018.7
20260506183719 62 272 0.0 3.0 0.00 0.00 0.00 26 1018.8
20260506183220 62 353 3.0 8.0 0.00 0.00 0.00 28 1018.9
20260506182722 62 334 2.0 6.0 0.00 0.00 0.00 26 1018.9
20260506182219 63 320 1.0 6.0 0.00 0.00 0.00 26 1019.0
20260506181719 62 335 2.0 7.0 0.00 0.00 0.00 27 1019.1
20260506181222 62 333 2.0 7.0 0.00 0.00 0.00 25 1019.1
20260506180720 62 303 1.0 3.0 0.00 0.00 0.00 27 1019.1
20260506175720 62 332 1.0 7.0 0.00 0.00 0.00 27 1019.2
20260506174720 62 315 2.0 6.0 0.00 0.00 0.00 29 1019.4
20260506174221 61 234 3.0 7.0 0.00 0.00 0.00 28 1019.4
20260506173719 61 242 1.0 3.0 0.00 0.00 0.00 27 1019.5
20260506173220 61 242 2.0 6.0 0.00 0.00 0.00 28 1019.6
20260506172722 60 340 2.0 8.0 0.00 0.00 0.00 30 1019.6
20260506171720 59 245 2.0 7.0 0.00 0.00 0.00 31 1019.8
20260506171221 59 251 3.0 8.0 0.00 0.00 0.00 29 1019.8
20260506170720 59 242 2.0 8.0 0.00 0.00 0.00 29 1019.9
20260506170220 59 246 3.0 7.0 0.00 0.00 0.00 28 1020.0
20260506165722 60 305 1.0 7.0 0.00 0.00 0.00 29 1020.0
20260506165220 60 42 3.0 5.0 0.00 0.00 0.00 30 1020.0
20260506164222 59 351 3.0 6.0 0.00 0.00 0.00 29 1020.0
20260506163219 59 342 2.0 3.0 0.00 0.00 0.00 27 1020.0
20260506162722 60 244 1.0 6.0 0.00 0.00 0.00 29 1020.0
20260506162219 59 339 2.0 3.0 0.00 0.00 0.00 29 1020.1
20260506161720 58 330 2.0 5.0 0.00 0.00 0.00 33 1020.1
20260506161222 57 241 3.0 6.0 0.00 0.00 0.00 31 1020.1
20260506160720 58 341 1.0 3.0 0.00 0.00 0.00 32 1020.1
20260506155720 56 210 1.0 5.0 0.00 0.00 0.00 34 1020.0
20260506155220 56 215 2.0 5.0 0.00 0.00 0.00 33 1020.0
20260506154720 57 10 2.0 7.0 0.00 0.00 0.00 33 1020.1
20260506154220 57 259 2.0 6.0 0.00 0.00 0.00 33 1020.1
20260506153720 57 327 2.0 3.0 0.00 0.00 0.00 34 1020.1
20260506153219 56 282 1.0 3.0 0.00 0.00 0.00 34 1020.1
20260506152720 56 37 1.0 3.0 0.00 0.00 0.00 35 1020.1
20260506152220 55 81 1.0 3.0 0.00 0.00 0.00 36 1020.1
20260506151720 55 73 3.0 6.0 0.00 0.00 0.00 34 1020.1
20260506151220 55 24 1.0 3.0 0.00 0.00 0.00 36 1020.1
20260506150719 55 24 0.0 2.0 0.00 0.00 0.00 36 1020.1
20260506150219 54 24 0.0 2.0 0.00 0.00 0.00 36 1020.1
20260506145720 54 26 2.0 3.0 0.00 0.00 0.00 36 1020.1
20260506145220 53 147 1.0 3.0 0.00 0.00 0.00 37 1020.1
20260506144720 52 149 1.0 3.0 0.00 0.00 0.00 38 1020.1
20260506144220 52 259 0.0 0.0 0.00 0.00 0.00 39 1020.1
20260506143719 52 259 0.0 0.0 0.00 0.00 0.00 40 1020.1
20260506143219 52 259 0.0 1.0 0.00 0.00 0.00 39 1020.2
20260506142722 52 258 0.0 3.0 0.00 0.00 0.00 40 1020.1
20260506142219 52 259 1.0 3.0 0.00 0.00 0.00 38 1020.2
20260506141220 51 259 0.0 1.0 0.00 0.00 0.00 42 1020.1
20260506140719 50 257 1.0 3.0 0.00 0.00 0.00 41 1020.1
20260506140219 50 259 1.0 2.0 0.00 0.00 0.00 41 1020.1
20260506135722 51 259 1.0 3.0 0.00 0.00 0.00 41 1019.9
20260506135220 51 259 0.0 0.0 0.00 0.00 0.00 43 1019.9
20260506134719 50 259 0.0 0.0 0.00 0.00 0.00 43 1019.8
20260506134222 49 258 0.0 0.0 0.00 0.00 0.00 47 1019.8
20260506133720 49 258 0.0 0.0 0.00 0.00 0.00 45 1019.8
20260506133220 48 258 0.0 0.0 0.00 0.00 0.00 49 1019.8
20260506132220 47 259 1.0 2.0 0.00 0.00 0.00 47 1019.6
20260506131720 47 259 0.0 0.0 0.00 0.00 0.00 48 1019.5
20260506131221 47 258 0.0 0.0 0.00 0.00 0.00 50 1019.5
20260506125721 45 255 0.0 0.0 0.00 0.00 0.00 53 1019.4
20260506125220 45 255 0.0 0.0 0.00 0.00 0.00 52 1019.3
20260506124720 44 255 0.0 0.0 0.00 0.00 0.00 55 1019.2
20260506124221 43 255 0.0 0.0 0.00 0.00 0.00 57 1019.1
20260506123720 43 255 0.0 0.0 0.00 0.00 0.00 60 1019.0
20260506123220 41 255 0.0 0.0 0.00 0.00 0.00 61 1018.9
20260506122721 41 255 0.0 0.0 0.00 0.00 0.00 63 1018.9
20260506122219 40 255 0.0 0.0 0.00 0.00 0.00 64 1018.7
20260506121720 40 255 0.0 0.0 0.00 0.00 0.00 65 1018.7
20260506120720 40 255 0.0 0.0 0.00 0.00 0.00 66 1018.5
20260506120220 40 255 0.0 0.0 0.00 0.00 0.00 67 1018.4
20260506115720 39 255 0.0 0.0 0.00 0.00 0.00 66 1018.4
20260506114720 40 255 0.0 0.0 0.00 0.00 0.00 65 1018.3
20260506114221 40 255 0.0 0.0 0.00 0.00 0.00 64 1018.2